Year,Month,Day,Hour,Minute,Value (Times are PST for temperature in C)
2008,09,15,00,00,11.60
2008,09,15,00,01,11.60
2008,09,15,00,02,11.60
2008,09,15,00,03,11.60
2008,09,15,00,04,11.60
2008,09,15,00,05,11.60
2008,09,15,00,06,11.60
2008,09,15,00,07,11.60
2008,09,15,00,08,11.50
2008,09,15,00,09,11.40
2008,09,15,00,10,11.40
2008,09,15,00,11,11.40
2008,09,15,00,12,11.40
2008,09,15,00,13,11.40
2008,09,15,00,14,11.30
2008,09,15,00,15,11.30
2008,09,15,00,16,11.30
2008,09,15,00,17,11.30
2008,09,15,00,18,11.30
2008,09,15,00,19,11.30
2008,09,15,00,20,11.30
2008,09,15,00,21,11.30
2008,09,15,00,22,11.30
2008,09,15,00,23,11.30
2008,09,15,00,24,11.30
2008,09,15,00,25,11.40
2008,09,15,00,26,11.40
2008,09,15,00,27,11.40
2008,09,15,00,28,11.30
2008,09,15,00,29,11.30
2008,09,15,00,30,11.30
2008,09,15,00,31,11.30
2008,09,15,00,32,11.30
2008,09,15,00,33,11.30
2008,09,15,00,34,11.30
2008,09,15,00,35,11.30
2008,09,15,00,36,11.30
2008,09,15,00,37,11.30
2008,09,15,00,38,11.30
2008,09,15,00,39,11.30
2008,09,15,00,40,11.30
2008,09,15,00,41,11.30
2008,09,15,00,42,11.30
2008,09,15,00,43,11.30
2008,09,15,00,44,11.30
2008,09,15,00,45,11.30
2008,09,15,00,46,11.30
2008,09,15,00,47,11.30
2008,09,15,00,48,11.30
2008,09,15,00,49,11.20
2008,09,15,00,50,11.20
2008,09,15,00,51,11.20
2008,09,15,00,52,11.20
2008,09,15,00,53,11.20
2008,09,15,00,54,11.20
2008,09,15,00,55,11.10
2008,09,15,00,56,11.10
2008,09,15,00,57,11.10
2008,09,15,00,58,11.10
2008,09,15,00,59,11.10
2008,09,15,01,00,11.10
2008,09,15,01,01,11.10
2008,09,15,01,02,11.10
2008,09,15,01,03,11.10
2008,09,15,01,04,11.10
2008,09,15,01,05,11.10
2008,09,15,01,06,11.10
2008,09,15,01,07,11.10
2008,09,15,01,08,11.10
2008,09,15,01,09,11.10
2008,09,15,01,10,11.10
2008,09,15,01,11,11.10
2008,09,15,01,12,11.10
2008,09,15,01,13,11.10
2008,09,15,01,14,11.10
2008,09,15,01,15,11.10
2008,09,15,01,16,11.10
2008,09,15,01,17,11.10
2008,09,15,01,18,11.10
2008,09,15,01,19,11.10
2008,09,15,01,20,11.10
2008,09,15,01,21,11.10
2008,09,15,01,22,11.10
2008,09,15,01,23,11.10
2008,09,15,01,24,11.10
2008,09,15,01,25,11.10
2008,09,15,01,26,11.10
2008,09,15,01,27,11.10
2008,09,15,01,28,11.10
2008,09,15,01,29,11.10
2008,09,15,01,30,11.10
2008,09,15,01,31,11.10
2008,09,15,01,32,11.10
2008,09,15,01,33,11.00
2008,09,15,01,34,11.00
2008,09,15,01,35,11.10
2008,09,15,01,36,11.10
2008,09,15,01,37,11.10
2008,09,15,01,38,11.00
2008,09,15,01,39,11.10
2008,09,15,01,40,11.10
2008,09,15,01,41,11.10
2008,09,15,01,42,11.10
2008,09,15,01,43,11.10
2008,09,15,01,44,11.10
2008,09,15,01,45,11.10
2008,09,15,01,46,11.10
2008,09,15,01,47,11.10
2008,09,15,01,48,11.10
2008,09,15,01,49,11.10
2008,09,15,01,50,11.10
2008,09,15,01,51,11.10
2008,09,15,01,52,11.00
2008,09,15,01,53,11.00
2008,09,15,01,54,10.90
2008,09,15,01,55,10.90
2008,09,15,01,56,10.90
2008,09,15,01,57,10.90
2008,09,15,01,58,10.90
2008,09,15,01,59,10.90
2008,09,15,02,00,10.90
2008,09,15,02,01,10.90
2008,09,15,02,02,10.90
2008,09,15,02,03,10.90
2008,09,15,02,04,10.90
2008,09,15,02,05,10.90
2008,09,15,02,06,10.90
2008,09,15,02,07,10.90
2008,09,15,02,08,10.90
2008,09,15,02,09,10.80
2008,09,15,02,10,10.80
2008,09,15,02,11,10.80
2008,09,15,02,12,10.80
2008,09,15,02,13,10.80
2008,09,15,02,14,10.80
2008,09,15,02,15,10.80
2008,09,15,02,16,10.80
2008,09,15,02,17,10.80
2008,09,15,02,18,10.80
2008,09,15,02,19,10.80
2008,09,15,02,20,10.80
2008,09,15,02,21,10.80
2008,09,15,02,22,10.80
2008,09,15,02,23,10.80
2008,09,15,02,24,10.80
2008,09,15,02,25,10.80
2008,09,15,02,26,10.80
2008,09,15,02,27,10.80
2008,09,15,02,28,10.80
2008,09,15,02,29,10.80
2008,09,15,02,30,10.80
2008,09,15,02,31,10.80
2008,09,15,02,32,10.70
2008,09,15,02,33,10.70
2008,09,15,02,34,10.70
2008,09,15,02,35,10.70
2008,09,15,02,36,10.70
2008,09,15,02,37,10.70
2008,09,15,02,38,10.70
2008,09,15,02,39,10.70
2008,09,15,02,40,10.70
2008,09,15,02,41,10.70
2008,09,15,02,42,10.60
2008,09,15,02,43,10.60
2008,09,15,02,44,10.60
2008,09,15,02,45,10.70
2008,09,15,02,46,10.70
2008,09,15,02,47,10.70
2008,09,15,02,48,10.70
2008,09,15,02,49,10.70
2008,09,15,02,50,10.70
2008,09,15,02,51,10.70
2008,09,15,02,52,10.70
2008,09,15,02,53,10.70
2008,09,15,02,54,10.70
2008,09,15,02,55,10.70
2008,09,15,02,56,10.70
2008,09,15,02,57,10.60
2008,09,15,02,58,10.60
2008,09,15,02,59,10.60
2008,09,15,03,00,10.60
2008,09,15,03,01,10.60
2008,09,15,03,02,10.60
2008,09,15,03,03,10.60
2008,09,15,03,04,10.60
2008,09,15,03,05,10.60
2008,09,15,03,06,10.60
2008,09,15,03,07,10.60
2008,09,15,03,08,10.50
2008,09,15,03,09,10.40
2008,09,15,03,10,10.40
2008,09,15,03,11,10.40
2008,09,15,03,12,10.40
2008,09,15,03,13,10.40
2008,09,15,03,14,10.40
2008,09,15,03,15,10.40
2008,09,15,03,16,10.40
2008,09,15,03,17,10.40
2008,09,15,03,18,10.40
2008,09,15,03,19,10.40
2008,09,15,03,20,10.40
2008,09,15,03,21,10.40
2008,09,15,03,22,10.40
2008,09,15,03,23,10.40
2008,09,15,03,24,10.40
2008,09,15,03,25,10.40
2008,09,15,03,26,10.40
2008,09,15,03,27,10.40
2008,09,15,03,28,10.40
2008,09,15,03,29,10.40
2008,09,15,03,30,10.40
2008,09,15,03,31,10.40
2008,09,15,03,32,10.40
2008,09,15,03,33,10.40
2008,09,15,03,34,10.40
2008,09,15,03,35,10.40
2008,09,15,03,36,10.40
2008,09,15,03,37,10.40
2008,09,15,03,38,10.40
2008,09,15,03,39,10.40
2008,09,15,03,40,10.40
2008,09,15,03,41,10.40
2008,09,15,03,42,10.40
2008,09,15,03,43,10.40
2008,09,15,03,44,10.40
2008,09,15,03,45,10.40
2008,09,15,03,46,10.40
2008,09,15,03,47,10.40
2008,09,15,03,48,10.40
2008,09,15,03,49,10.40
2008,09,15,03,50,10.40
2008,09,15,03,51,10.40
2008,09,15,03,52,10.40
2008,09,15,03,53,10.30
2008,09,15,03,54,10.30
2008,09,15,03,55,10.30
2008,09,15,03,56,10.30
2008,09,15,03,57,10.30
2008,09,15,03,58,10.30
2008,09,15,03,59,10.30
2008,09,15,04,00,10.30
2008,09,15,04,01,10.40
2008,09,15,04,02,10.40
2008,09,15,04,03,10.30
2008,09,15,04,04,10.30
2008,09,15,04,05,10.30
2008,09,15,04,06,10.30
2008,09,15,04,07,10.30
2008,09,15,04,08,10.30
2008,09,15,04,09,10.30
2008,09,15,04,10,10.30
2008,09,15,04,11,10.30
2008,09,15,04,12,10.30
2008,09,15,04,13,10.30
2008,09,15,04,14,10.30
2008,09,15,04,15,10.40
2008,09,15,04,16,10.40
2008,09,15,04,17,10.40
2008,09,15,04,18,10.30
2008,09,15,04,19,10.30
2008,09,15,04,20,10.30
2008,09,15,04,21,10.30
2008,09,15,04,22,10.40
2008,09,15,04,23,10.40
2008,09,15,04,24,10.40
2008,09,15,04,25,10.40
2008,09,15,04,26,10.40
2008,09,15,04,27,10.50
2008,09,15,04,28,10.60
2008,09,15,04,29,10.60
2008,09,15,04,30,10.60
2008,09,15,04,31,10.60
2008,09,15,04,32,10.60
2008,09,15,04,33,10.60
2008,09,15,04,34,10.60
2008,09,15,04,35,10.60
2008,09,15,04,36,10.60
2008,09,15,04,37,10.60
2008,09,15,04,38,10.60
2008,09,15,04,39,10.60
2008,09,15,04,40,10.60
2008,09,15,04,41,10.60
2008,09,15,04,42,10.60
2008,09,15,04,43,10.60
2008,09,15,04,44,10.60
2008,09,15,04,45,10.60
2008,09,15,04,46,10.60
2008,09,15,04,47,10.70
2008,09,15,04,48,10.70
2008,09,15,04,49,10.70
2008,09,15,04,50,10.70
2008,09,15,04,51,10.70
2008,09,15,04,52,10.70
2008,09,15,04,53,10.80
2008,09,15,04,54,10.90
2008,09,15,04,55,10.90
2008,09,15,04,56,10.90
2008,09,15,04,57,11.10
2008,09,15,04,58,11.10
2008,09,15,04,59,11.10
2008,09,15,05,00,11.10
2008,09,15,05,01,11.10
2008,09,15,05,02,11.20
2008,09,15,05,03,11.10
2008,09,15,05,04,11.10
2008,09,15,05,05,11.00
2008,09,15,05,06,10.90
2008,09,15,05,07,10.90
2008,09,15,05,08,10.80
2008,09,15,05,09,10.80
2008,09,15,05,10,10.80
2008,09,15,05,11,10.80
2008,09,15,05,12,10.80
2008,09,15,05,13,10.80
2008,09,15,05,14,10.80
2008,09,15,05,15,10.80
2008,09,15,05,16,10.70
2008,09,15,05,17,10.70
2008,09,15,05,18,10.60
2008,09,15,05,19,10.60
2008,09,15,05,20,10.60
2008,09,15,05,21,10.60
2008,09,15,05,22,10.60
2008,09,15,05,23,10.60
2008,09,15,05,24,10.60
2008,09,15,05,25,10.60
2008,09,15,05,26,10.60
2008,09,15,05,27,10.50
2008,09,15,05,28,10.50
2008,09,15,05,29,10.60
2008,09,15,05,30,10.60
2008,09,15,05,31,10.60
2008,09,15,05,32,10.60
2008,09,15,05,33,10.60
2008,09,15,05,34,10.60
2008,09,15,05,35,10.60
2008,09,15,05,36,10.60
2008,09,15,05,37,10.60
2008,09,15,05,38,10.60
2008,09,15,05,39,10.60
2008,09,15,05,40,10.60
2008,09,15,05,41,10.60
2008,09,15,05,42,10.60
2008,09,15,05,43,10.40
2008,09,15,05,44,10.40
2008,09,15,05,45,10.40
2008,09,15,05,46,10.40
2008,09,15,05,47,10.40
2008,09,15,05,48,10.40
2008,09,15,05,49,10.40
2008,09,15,05,50,10.30
2008,09,15,05,51,10.30
2008,09,15,05,52,10.30
2008,09,15,05,53,10.20
2008,09,15,05,54,10.20
2008,09,15,05,55,10.20
2008,09,15,05,56,10.20
2008,09,15,05,57,10.10
2008,09,15,05,58,10.10
2008,09,15,05,59,10.10
2008,09,15,06,00,10.10
2008,09,15,06,01,10.10
2008,09,15,06,02,10.10
2008,09,15,06,03,10.10
2008,09,15,06,04,10.10
2008,09,15,06,05,10.10
2008,09,15,06,06,10.10
2008,09,15,06,07,10.10
2008,09,15,06,08,10.10
2008,09,15,06,09,10.10
2008,09,15,06,10,10.00
2008,09,15,06,11,9.90
2008,09,15,06,12,9.90
2008,09,15,06,13,9.90
2008,09,15,06,14,9.90
2008,09,15,06,15,9.90
2008,09,15,06,16,9.90
2008,09,15,06,17,9.90
2008,09,15,06,18,9.90
2008,09,15,06,19,9.90
2008,09,15,06,20,9.90
2008,09,15,06,21,9.90
2008,09,15,06,22,9.90
2008,09,15,06,23,9.90
2008,09,15,06,24,9.90
2008,09,15,06,25,9.90
2008,09,15,06,26,9.90
2008,09,15,06,27,9.90
2008,09,15,06,28,9.90
2008,09,15,06,29,9.80
2008,09,15,06,30,9.80
2008,09,15,06,31,9.80
2008,09,15,06,32,9.80
2008,09,15,06,33,9.80
2008,09,15,06,34,9.80
2008,09,15,06,35,9.70
2008,09,15,06,36,9.70
2008,09,15,06,37,9.70
2008,09,15,06,38,9.70
2008,09,15,06,39,9.70
2008,09,15,06,40,9.70
2008,09,15,06,41,9.70
2008,09,15,06,42,9.70
2008,09,15,06,43,9.70
2008,09,15,06,44,9.70
2008,09,15,06,45,9.70
2008,09,15,06,46,9.70
2008,09,15,06,47,9.70
2008,09,15,06,48,9.70
2008,09,15,06,49,9.70
2008,09,15,06,50,9.70
2008,09,15,06,51,9.70
2008,09,15,06,52,9.80
2008,09,15,06,53,9.80
2008,09,15,06,54,9.80
2008,09,15,06,55,9.70
2008,09,15,06,56,9.70
2008,09,15,06,57,9.70
2008,09,15,06,58,9.70
2008,09,15,06,59,9.70
2008,09,15,07,00,9.70
2008,09,15,07,01,9.70
2008,09,15,07,02,9.70
2008,09,15,07,03,9.70
2008,09,15,07,04,9.70
2008,09,15,07,05,9.70
2008,09,15,07,06,9.70
2008,09,15,07,07,9.70
2008,09,15,07,08,9.70
2008,09,15,07,09,9.70
2008,09,15,07,10,9.70
2008,09,15,07,11,9.70
2008,09,15,07,12,9.70
2008,09,15,07,13,9.70
2008,09,15,07,14,9.70
2008,09,15,07,15,9.70
2008,09,15,07,16,9.70
2008,09,15,07,17,9.70
2008,09,15,07,18,9.70
2008,09,15,07,19,9.70
2008,09,15,07,20,9.70
2008,09,15,07,21,9.70
2008,09,15,07,22,9.70
2008,09,15,07,23,9.70
2008,09,15,07,24,9.70
2008,09,15,07,25,9.70
2008,09,15,07,26,9.70
2008,09,15,07,27,9.70
2008,09,15,07,28,9.70
2008,09,15,07,29,9.80
2008,09,15,07,30,9.80
2008,09,15,07,31,9.80
2008,09,15,07,32,9.80
2008,09,15,07,33,9.80
2008,09,15,07,34,9.80
2008,09,15,07,35,9.80
2008,09,15,07,36,9.80
2008,09,15,07,37,9.90
2008,09,15,07,38,9.90
2008,09,15,07,39,9.90
2008,09,15,07,40,9.90
2008,09,15,07,41,9.90
2008,09,15,07,42,9.90
2008,09,15,07,43,9.90
2008,09,15,07,44,9.90
2008,09,15,07,45,9.90
2008,09,15,07,46,9.90
2008,09,15,07,47,10.00
2008,09,15,07,48,10.10
2008,09,15,07,49,10.10
2008,09,15,07,50,10.10
2008,09,15,07,51,10.10
2008,09,15,07,52,10.10
2008,09,15,07,53,10.10
2008,09,15,07,54,10.10
2008,09,15,07,55,10.20
2008,09,15,07,56,10.20
2008,09,15,07,57,10.20
2008,09,15,07,58,10.30
2008,09,15,07,59,10.30
2008,09,15,08,00,10.40
2008,09,15,08,01,10.40
2008,09,15,08,02,10.40
2008,09,15,08,03,10.50
2008,09,15,08,04,10.60
2008,09,15,08,05,10.60
2008,09,15,08,06,10.60
2008,09,15,08,07,10.70
2008,09,15,08,08,10.70
2008,09,15,08,09,10.70
2008,09,15,08,10,10.80
2008,09,15,08,11,10.80
2008,09,15,08,12,10.90
2008,09,15,08,13,10.90
2008,09,15,08,14,10.90
2008,09,15,08,15,10.90
2008,09,15,08,16,11.00
2008,09,15,08,17,11.10
2008,09,15,08,18,11.20
2008,09,15,08,19,11.20
2008,09,15,08,20,11.40
2008,09,15,08,21,11.50
2008,09,15,08,22,11.60
2008,09,15,08,23,11.80
2008,09,15,08,24,12.00
2008,09,15,08,25,12.10
2008,09,15,08,26,12.20
2008,09,15,08,27,12.40
2008,09,15,08,28,12.50
2008,09,15,08,29,12.60
2008,09,15,08,30,12.70
2008,09,15,08,31,12.80
2008,09,15,08,32,12.90
2008,09,15,08,33,13.00
2008,09,15,08,34,13.10
2008,09,15,08,35,13.20
2008,09,15,08,36,13.30
2008,09,15,08,37,13.40
2008,09,15,08,38,13.50
2008,09,15,08,39,13.60
2008,09,15,08,40,13.70
2008,09,15,08,41,13.80
2008,09,15,08,42,14.00
2008,09,15,08,43,14.10
2008,09,15,08,44,14.20
2008,09,15,08,45,14.20
2008,09,15,08,46,14.40
2008,09,15,08,47,14.50
2008,09,15,08,48,14.50
2008,09,15,08,49,14.60
2008,09,15,08,50,14.70
2008,09,15,08,51,14.80
2008,09,15,08,52,14.80
2008,09,15,08,53,14.90
2008,09,15,08,54,15.00
2008,09,15,08,55,15.00
2008,09,15,08,56,15.10
2008,09,15,08,57,15.20
2008,09,15,08,58,15.20
2008,09,15,08,59,15.30
2008,09,15,09,00,15.30
2008,09,15,09,01,15.30
2008,09,15,09,02,15.30
2008,09,15,09,03,15.40
2008,09,15,09,04,15.40
2008,09,15,09,05,15.50
2008,09,15,09,06,15.50
2008,09,15,09,07,15.50
2008,09,15,09,08,15.60
2008,09,15,09,09,15.60
2008,09,15,09,10,15.60
2008,09,15,09,11,15.70
2008,09,15,09,12,15.70
2008,09,15,09,13,15.70
2008,09,15,09,14,15.80
2008,09,15,09,15,15.80
2008,09,15,09,16,15.80
2008,09,15,09,17,15.80
2008,09,15,09,18,15.80
2008,09,15,09,19,15.80
2008,09,15,09,20,15.80
2008,09,15,09,21,15.80
2008,09,15,09,22,15.80
2008,09,15,09,23,15.80
2008,09,15,09,24,15.80
2008,09,15,09,25,15.80
2008,09,15,09,26,15.80
2008,09,15,09,27,15.90
2008,09,15,09,28,15.90
2008,09,15,09,29,15.90
2008,09,15,09,30,16.00
2008,09,15,09,31,16.10
2008,09,15,09,32,16.10
2008,09,15,09,33,16.10
2008,09,15,09,34,16.10
2008,09,15,09,35,16.10
2008,09,15,09,36,16.10
2008,09,15,09,37,16.10
2008,09,15,09,38,16.20
2008,09,15,09,39,16.20
2008,09,15,09,40,16.20
2008,09,15,09,41,16.30
2008,09,15,09,42,16.30
2008,09,15,09,43,16.30
2008,09,15,09,44,16.30
2008,09,15,09,45,16.40
2008,09,15,09,46,16.40
2008,09,15,09,47,16.40
2008,09,15,09,48,16.40
2008,09,15,09,49,16.50
2008,09,15,09,50,16.60
2008,09,15,09,51,16.60
2008,09,15,09,52,16.60
2008,09,15,09,53,16.70
2008,09,15,09,54,16.70
2008,09,15,09,55,16.70
2008,09,15,09,56,16.70
2008,09,15,09,57,16.70
2008,09,15,09,58,16.80
2008,09,15,09,59,16.80
2008,09,15,10,00,16.80
2008,09,15,10,01,16.80
2008,09,15,10,02,16.90
2008,09,15,10,03,16.90
2008,09,15,10,04,16.90
2008,09,15,10,05,16.90
2008,09,15,10,06,16.90
2008,09,15,10,07,17.00
2008,09,15,10,08,17.00
2008,09,15,10,09,17.00
2008,09,15,10,10,17.10
2008,09,15,10,11,17.00
2008,09,15,10,12,17.10
2008,09,15,10,13,17.10
2008,09,15,10,14,17.10
2008,09,15,10,15,17.10
2008,09,15,10,16,17.10
2008,09,15,10,17,17.10
2008,09,15,10,18,17.10
2008,09,15,10,19,17.10
2008,09,15,10,20,17.20
2008,09,15,10,21,17.20
2008,09,15,10,22,17.20
2008,09,15,10,23,17.30
2008,09,15,10,24,17.30
2008,09,15,10,25,17.30
2008,09,15,10,26,17.30
2008,09,15,10,27,17.40
2008,09,15,10,28,17.40
2008,09,15,10,29,17.50
2008,09,15,10,30,17.50
2008,09,15,10,31,17.50
2008,09,15,10,32,17.60
2008,09,15,10,33,17.60
2008,09,15,10,34,17.70
2008,09,15,10,35,17.70
2008,09,15,10,36,17.80
2008,09,15,10,37,17.80
2008,09,15,10,38,17.90
2008,09,15,10,39,17.90
2008,09,15,10,40,17.90
2008,09,15,10,41,18.00
2008,09,15,10,42,18.10
2008,09,15,10,43,18.10
2008,09,15,10,44,18.10
2008,09,15,10,45,18.10
2008,09,15,10,46,18.20
2008,09,15,10,47,18.20
2008,09,15,10,48,18.20
2008,09,15,10,49,18.20
2008,09,15,10,50,18.20
2008,09,15,10,51,18.10
2008,09,15,10,52,18.00
2008,09,15,10,53,17.90
2008,09,15,10,54,17.90
2008,09,15,10,55,18.10
2008,09,15,10,56,18.00
2008,09,15,10,57,18.10
2008,09,15,10,58,18.10
2008,09,15,10,59,18.20
2008,09,15,11,00,18.20
2008,09,15,11,01,18.30
2008,09,15,11,02,18.30
2008,09,15,11,03,18.30
2008,09,15,11,04,18.30
2008,09,15,11,05,18.20
2008,09,15,11,06,18.20
2008,09,15,11,07,18.20
2008,09,15,11,08,18.20
2008,09,15,11,09,18.20
2008,09,15,11,10,18.10
2008,09,15,11,11,18.10
2008,09,15,11,12,18.10
2008,09,15,11,13,18.20
2008,09,15,11,14,18.20
2008,09,15,11,15,18.20
2008,09,15,11,16,18.30
2008,09,15,11,17,18.30
2008,09,15,11,18,18.40
2008,09,15,11,19,18.40
2008,09,15,11,20,18.50
2008,09,15,11,21,18.50
2008,09,15,11,22,18.60
2008,09,15,11,23,18.60
2008,09,15,11,24,18.70
2008,09,15,11,25,18.60
2008,09,15,11,26,18.70
2008,09,15,11,27,18.70
2008,09,15,11,28,18.70
2008,09,15,11,29,18.70
2008,09,15,11,30,18.80
2008,09,15,11,31,18.80
2008,09,15,11,32,18.80
2008,09,15,11,33,18.90
2008,09,15,11,34,18.90
2008,09,15,11,35,18.90
2008,09,15,11,36,18.90
2008,09,15,11,37,18.90
2008,09,15,11,38,18.90
2008,09,15,11,39,18.90
2008,09,15,11,40,18.90
2008,09,15,11,41,18.90
2008,09,15,11,42,18.90
2008,09,15,11,43,18.90
2008,09,15,11,44,18.90
2008,09,15,11,45,18.90
2008,09,15,11,46,18.90
2008,09,15,11,47,18.90
2008,09,15,11,48,18.90
2008,09,15,11,49,18.90
2008,09,15,11,50,18.90
2008,09,15,11,51,18.90
2008,09,15,11,52,19.00
2008,09,15,11,53,19.10
2008,09,15,11,54,19.10
2008,09,15,11,55,19.10
2008,09,15,11,56,19.10
2008,09,15,11,57,19.10
2008,09,15,11,58,19.10
2008,09,15,11,59,19.10
2008,09,15,12,00,19.10
2008,09,15,12,01,19.20
2008,09,15,12,02,19.30
2008,09,15,12,03,19.30
2008,09,15,12,04,19.30
2008,09,15,12,05,19.30
2008,09,15,12,06,19.40
2008,09,15,12,07,19.40
2008,09,15,12,08,19.40
2008,09,15,12,09,19.40
2008,09,15,12,10,19.50
2008,09,15,12,11,19.50
2008,09,15,12,12,19.50
2008,09,15,12,13,19.60
2008,09,15,12,14,19.50
2008,09,15,12,15,19.50
2008,09,15,12,16,19.50
2008,09,15,12,17,19.50
2008,09,15,12,18,19.60
2008,09,15,12,19,19.60
2008,09,15,12,20,19.60
2008,09,15,12,21,19.60
2008,09,15,12,22,19.60
2008,09,15,12,23,19.60
2008,09,15,12,24,19.70
2008,09,15,12,25,19.80
2008,09,15,12,26,19.90
2008,09,15,12,27,19.90
2008,09,15,12,28,20.00
2008,09,15,12,29,20.20
2008,09,15,12,30,20.20
2008,09,15,12,31,20.20
2008,09,15,12,32,20.30
2008,09,15,12,33,20.30
2008,09,15,12,34,20.20
2008,09,15,12,35,20.20
2008,09,15,12,36,20.20
2008,09,15,12,37,20.20
2008,09,15,12,38,20.20
2008,09,15,12,39,20.20
2008,09,15,12,40,20.20
2008,09,15,12,41,20.20
2008,09,15,12,42,20.20
2008,09,15,12,43,20.20
2008,09,15,12,44,20.20
2008,09,15,12,45,20.20
2008,09,15,12,46,20.20
2008,09,15,12,47,20.10
2008,09,15,12,48,20.10
2008,09,15,12,49,20.10
2008,09,15,12,50,20.20
2008,09,15,12,51,20.20
2008,09,15,12,52,20.30
2008,09,15,12,53,20.30
2008,09,15,12,54,20.30
2008,09,15,12,55,20.30
2008,09,15,12,56,20.40
2008,09,15,12,57,20.40
2008,09,15,12,58,20.40
2008,09,15,12,59,20.40
2008,09,15,13,00,20.40
2008,09,15,13,01,20.40
2008,09,15,13,02,20.50
2008,09,15,13,03,20.50
2008,09,15,13,04,20.60
2008,09,15,13,05,20.70
2008,09,15,13,06,20.70
2008,09,15,13,07,20.80
2008,09,15,13,08,20.80
2008,09,15,13,09,20.80
2008,09,15,13,10,20.90
2008,09,15,13,11,20.90
2008,09,15,13,12,20.80
2008,09,15,13,13,20.80
2008,09,15,13,14,20.70
2008,09,15,13,15,20.80
2008,09,15,13,16,20.80
2008,09,15,13,17,20.80
2008,09,15,13,18,20.80
2008,09,15,13,19,20.80
2008,09,15,13,20,20.90
2008,09,15,13,21,20.80
2008,09,15,13,22,20.80
2008,09,15,13,23,20.80
2008,09,15,13,24,20.80
2008,09,15,13,25,20.90
2008,09,15,13,26,20.90
2008,09,15,13,27,20.90
2008,09,15,13,28,20.90
2008,09,15,13,29,20.90
2008,09,15,13,30,20.90
2008,09,15,13,31,21.00
2008,09,15,13,32,21.00
2008,09,15,13,33,21.00
2008,09,15,13,34,21.10
2008,09,15,13,35,21.20
2008,09,15,13,36,21.20
2008,09,15,13,37,21.20
2008,09,15,13,38,21.20
2008,09,15,13,39,21.30
2008,09,15,13,40,21.30
2008,09,15,13,41,21.30
2008,09,15,13,42,21.20
2008,09,15,13,43,21.20
2008,09,15,13,44,21.20
2008,09,15,13,45,21.20
2008,09,15,13,46,21.20
2008,09,15,13,47,21.20
2008,09,15,13,48,21.30
2008,09,15,13,49,21.40
2008,09,15,13,50,21.40
2008,09,15,13,51,21.40
2008,09,15,13,52,21.40
2008,09,15,13,53,21.40
2008,09,15,13,54,21.40
2008,09,15,13,55,21.40
2008,09,15,13,56,21.40
2008,09,15,13,57,21.30
2008,09,15,13,58,21.30
2008,09,15,13,59,21.30
2008,09,15,14,00,21.30
2008,09,15,14,01,21.30
2008,09,15,14,02,21.30
2008,09,15,14,03,21.30
2008,09,15,14,04,21.30
2008,09,15,14,05,21.30
2008,09,15,14,06,21.30
2008,09,15,14,07,21.30
2008,09,15,14,08,21.30
2008,09,15,14,09,21.30
2008,09,15,14,10,21.30
2008,09,15,14,11,21.30
2008,09,15,14,12,21.30
2008,09,15,14,13,21.30
2008,09,15,14,14,21.40
2008,09,15,14,15,21.40
2008,09,15,14,16,21.40
2008,09,15,14,17,21.50
2008,09,15,14,18,21.60
2008,09,15,14,19,21.60
2008,09,15,14,20,21.70
2008,09,15,14,21,21.90
2008,09,15,14,22,22.00
2008,09,15,14,23,22.00
2008,09,15,14,24,22.00
2008,09,15,14,25,22.10
2008,09,15,14,26,22.20
2008,09,15,14,27,22.20
2008,09,15,14,28,22.20
2008,09,15,14,29,22.20
2008,09,15,14,30,22.10
2008,09,15,14,31,22.10
2008,09,15,14,32,22.00
2008,09,15,14,33,22.10
2008,09,15,14,34,22.10
2008,09,15,14,35,22.10
2008,09,15,14,36,22.10
2008,09,15,14,37,22.20
2008,09,15,14,38,22.20
2008,09,15,14,39,22.10
2008,09,15,14,40,22.10
2008,09,15,14,41,22.10
2008,09,15,14,42,22.10
2008,09,15,14,43,22.10
2008,09,15,14,44,22.10
2008,09,15,14,45,22.10
2008,09,15,14,46,22.10
2008,09,15,14,47,22.10
2008,09,15,14,48,22.20
2008,09,15,14,49,22.20
2008,09,15,14,50,22.30
2008,09,15,14,51,22.40
2008,09,15,14,52,22.40
2008,09,15,14,53,22.40
2008,09,15,14,54,22.40
2008,09,15,14,55,22.40
2008,09,15,14,56,22.30
2008,09,15,14,57,22.30
2008,09,15,14,58,22.30
2008,09,15,14,59,22.30
2008,09,15,15,00,22.30
2008,09,15,15,01,22.30
2008,09,15,15,02,22.40
2008,09,15,15,03,22.40
2008,09,15,15,04,22.40
2008,09,15,15,05,22.50
2008,09,15,15,06,22.50
2008,09,15,15,07,22.50
2008,09,15,15,08,22.50
2008,09,15,15,09,22.50
2008,09,15,15,10,22.50
2008,09,15,15,11,22.60
2008,09,15,15,12,22.70
2008,09,15,15,13,22.80
2008,09,15,15,14,22.90
2008,09,15,15,15,22.90
2008,09,15,15,16,22.90
2008,09,15,15,17,22.90
2008,09,15,15,18,22.90
2008,09,15,15,19,22.90
2008,09,15,15,20,22.80
2008,09,15,15,21,22.80
2008,09,15,15,22,22.80
2008,09,15,15,23,22.80
2008,09,15,15,24,22.80
2008,09,15,15,25,22.80
2008,09,15,15,26,22.90
2008,09,15,15,27,22.90
2008,09,15,15,28,22.90
2008,09,15,15,29,22.90
2008,09,15,15,30,23.00
2008,09,15,15,31,23.10
2008,09,15,15,32,23.10
2008,09,15,15,33,23.20
2008,09,15,15,34,23.20
2008,09,15,15,35,23.30
2008,09,15,15,36,23.30
2008,09,15,15,37,23.40
2008,09,15,15,38,23.40
2008,09,15,15,39,23.40
2008,09,15,15,40,23.40
2008,09,15,15,41,23.30
2008,09,15,15,42,23.30
2008,09,15,15,43,23.30
2008,09,15,15,44,23.30
2008,09,15,15,45,23.30
2008,09,15,15,46,23.30
2008,09,15,15,47,23.30
2008,09,15,15,48,23.30
2008,09,15,15,49,23.30
2008,09,15,15,50,23.30
2008,09,15,15,51,23.30
2008,09,15,15,52,23.20
2008,09,15,15,53,23.20
2008,09,15,15,54,23.20
2008,09,15,15,55,23.10
2008,09,15,15,56,23.10
2008,09,15,15,57,23.20
2008,09,15,15,58,23.20
2008,09,15,15,59,23.30
2008,09,15,16,00,23.30
2008,09,15,16,01,23.30
2008,09,15,16,02,23.40
2008,09,15,16,03,23.50
2008,09,15,16,04,23.60
2008,09,15,16,05,23.70
2008,09,15,16,06,23.70
2008,09,15,16,07,23.70
2008,09,15,16,08,23.70
2008,09,15,16,09,23.70
2008,09,15,16,10,23.70
2008,09,15,16,11,23.70
2008,09,15,16,12,23.70
2008,09,15,16,13,23.70
2008,09,15,16,14,23.70
2008,09,15,16,15,23.70
2008,09,15,16,16,23.70
2008,09,15,16,17,23.70
2008,09,15,16,18,23.70
2008,09,15,16,19,23.70
2008,09,15,16,20,23.70
2008,09,15,16,21,23.70
2008,09,15,16,22,23.60
2008,09,15,16,23,23.60
2008,09,15,16,24,23.60
2008,09,15,16,25,23.60
2008,09,15,16,26,23.60
2008,09,15,16,27,23.60
2008,09,15,16,28,23.60
2008,09,15,16,29,23.70
2008,09,15,16,30,23.70
2008,09,15,16,31,23.70
2008,09,15,16,32,23.60
2008,09,15,16,33,23.60
2008,09,15,16,34,23.60
2008,09,15,16,35,23.60
2008,09,15,16,36,23.60
2008,09,15,16,37,23.50
2008,09,15,16,38,23.40
2008,09,15,16,39,23.40
2008,09,15,16,40,23.40
2008,09,15,16,41,23.50
2008,09,15,16,42,23.60
2008,09,15,16,43,23.60
2008,09,15,16,44,23.60
2008,09,15,16,45,23.70
2008,09,15,16,46,23.70
2008,09,15,16,47,23.70
2008,09,15,16,48,23.60
2008,09,15,16,49,23.60
2008,09,15,16,50,23.60
2008,09,15,16,51,23.60
2008,09,15,16,52,23.60
2008,09,15,16,53,23.70
2008,09,15,16,54,23.70
2008,09,15,16,55,23.70
2008,09,15,16,56,23.70
2008,09,15,16,57,23.70
2008,09,15,16,58,23.60
2008,09,15,16,59,23.60
2008,09,15,17,00,23.60
2008,09,15,17,01,23.60
2008,09,15,17,02,23.60
2008,09,15,17,03,23.60
2008,09,15,17,04,23.60
2008,09,15,17,05,23.70
2008,09,15,17,06,23.70
2008,09,15,17,07,23.70
2008,09,15,17,08,23.70
2008,09,15,17,09,23.70
2008,09,15,17,10,23.70
2008,09,15,17,11,23.70
2008,09,15,17,12,23.70
2008,09,15,17,13,23.70
2008,09,15,17,14,23.60
2008,09,15,17,15,23.60
2008,09,15,17,16,23.60
2008,09,15,17,17,23.50
2008,09,15,17,18,23.40
2008,09,15,17,19,23.40
2008,09,15,17,20,23.40
2008,09,15,17,21,23.40
2008,09,15,17,22,23.40
2008,09,15,17,23,23.40